• In Uzbekistan
  • List of Countries
  • For 7 days
  • Water Temperature
  • Satellite Maps
  • Weather Map
  • Weather Widgets
  • user-avatar
    Login

    Hourly Weather Tokmak

    Today, 25 September, Tuesday

    Time Temperature Precipitation Wind Pressure Humidity
    00:00 -9°C° 0 mm 2 mps 481 mmHg 77%
    01:00 -9°C° 0 mm 2 mps 481 mmHg 74%
    02:00 -10°C° 0 mm 2 mps 481 mmHg 72%
    03:00 -9°C° 0 mm 2 mps 481 mmHg 69%
    04:00 -9°C° 0 mm 2 mps 481 mmHg 66%
    05:00 -9°C° 0 mm 2 mps 481 mmHg 63%
    06:00 -8°C° 0 mm 2 mps 482 mmHg 60%
    07:00 -6°C° 0 mm 2 mps 483 mmHg 58%
    08:00 -5°C° 0 mm 2 mps 485 mmHg 55%
    09:00 -2°C° 0 mm 1 mps 485 mmHg 51%
    10:00 -1°C° 0 mm 1 mps 486 mmHg 47%
    11:00 0°C° 0 mm 1 mps 486 mmHg 43%
    12:00 +1°C° 0 mm 1 mps 486 mmHg 42%
    13:00 -1°C° 0 mm 2 mps 487 mmHg 42%
    14:00 +1°C° 0 mm 2 mps 487 mmHg 41%
    15:00 -1°C° 0 mm 2 mps 486 mmHg 42%
    16:00 0°C° 0 mm 1 mps 486 mmHg 44%
    17:00 0°C° 0 mm 1 mps 485 mmHg 45%
    18:00 -3°C° 0 mm 2 mps 485 mmHg 45%
    19:00 -5°C° 0 mm 2 mps 484 mmHg 46%
    20:00 -7°C° 0 mm 3 mps 483 mmHg 46%
    21:00 -7°C° 0 mm 3 mps 483 mmHg 46%
    22:00 -7°C° 0 mm 3 mps 483 mmHg 47%
    23:00 -7°C° 0 mm 3 mps 483 mmHg 47%

    Tomorrow, 26 September, Wednesday

    Time Temperature Precipitation Wind Pressure Humidity
    00:00 -7°C° 0 mm 3 mps 483 mmHg 49%
    01:00 -7°C° 0 mm 3 mps 482 mmHg 50%
    02:00 -7°C° 0 mm 3 mps 482 mmHg 52%
    03:00 -7°C° 0 mm 3 mps 482 mmHg 53%
    04:00 -7°C° 0 mm 3 mps 482 mmHg 54%
    05:00 -8°C° 0 mm 3 mps 482 mmHg 55%
    06:00 -6°C° 0 mm 3 mps 483 mmHg 53%
    07:00 -5°C° 0 mm 3 mps 484 mmHg 52%
    08:00 -2°C° 0 mm 2 mps 485 mmHg 50%
    09:00 -1°C° 0 mm 2 mps 486 mmHg 46%
    10:00 +1°C° 0 mm 2 mps 486 mmHg 41%
    11:00 +3°C° 0 mm 1 mps 487 mmHg 36%
    12:00 +4°C° 0 mm 1 mps 487 mmHg 35%
    13:00 +4°C° 0 mm 1 mps 487 mmHg 35%
    14:00 +4°C° 0 mm 2 mps 487 mmHg 34%
    15:00 +4°C° 0 mm 1 mps 486 mmHg 38%
    16:00 +3°C° 0 mm 1 mps 486 mmHg 43%
    17:00 +2°C° 0 mm 1 mps 485 mmHg 47%
    18:00 -1°C° 0 mm 2 mps 485 mmHg 48%
    19:00 -2°C° 0 mm 2 mps 484 mmHg 48%
    20:00 -4°C° 0 mm 3 mps 484 mmHg 49%
    21:00 -4°C° 0 mm 3 mps 484 mmHg 48%
    22:00 -4°C° 0 mm 3 mps 484 mmHg 47%
    23:00 -4°C° 0 mm 3 mps 484 mmHg 46%

    Day after tomorrow, 27 September, Thursday

    Time Temperature Precipitation Wind Pressure Humidity
    00:00 -4°C° 0 mm 3 mps 484 mmHg 45%
    01:00 -4°C° 0 mm 3 mps 484 mmHg 44%
    02:00 -4°C° 0 mm 3 mps 484 mmHg 42%
    03:00 -4°C° 0 mm 3 mps 484 mmHg 42%
    04:00 -4°C° 0 mm 3 mps 484 mmHg 42%
    05:00 -4°C° 0 mm 3 mps 484 mmHg 42%
    06:00 -2°C° 0 mm 2 mps 485 mmHg 42%
    07:00 -1°C° 0 mm 2 mps 485 mmHg 42%
    08:00 +1°C° 0 mm 2 mps 486 mmHg 42%
    09:00 +1°C° 0 mm 2 mps 487 mmHg 39%
    10:00 +2°C° 0 mm 2 mps 487 mmHg 37%
    11:00 +4°C° 0 mm 1 mps 488 mmHg 34%
    12:00 +4°C° 0 mm 1 mps 487 mmHg 35%
    13:00 +4°C° 0 mm 1 mps 487 mmHg 35%
    14:00 +4°C° 0 mm 1 mps 487 mmHg 35%
    15:00 +4°C° 0 mm 1 mps 487 mmHg 40%
    16:00 +3°C° 0 mm 1 mps 486 mmHg 44%
    17:00 +1°C° 0 mm 0 mps 486 mmHg 48%
    18:00 +1°C° 0 mm 1 mps 485 mmHg 50%
    19:00 0°C° 0 mm 1 mps 485 mmHg 51%
    20:00 -3°C° 0 mm 2 mps 484 mmHg 52%
    21:00 -3°C° 0 mm 2 mps 484 mmHg 52%
    22:00 -3°C° 0 mm 2 mps 484 mmHg 52%
    23:00 -3°C° 0 mm 2 mps 484 mmHg 52%

    28 September, Friday

    Time Temperature Precipitation Wind Pressure Humidity
    00:00 -3°C° 0 mm 2 mps 484 mmHg 52%
    01:00 -3°C° 0 mm 2 mps 484 mmHg 53%
    02:00 -3°C° 0 mm 2 mps 484 mmHg 53%
    03:00 -4°C° 0.1 mm 2 mps 484 mmHg 55%
    04:00 -4°C° 0.1 mm 2 mps 484 mmHg 57%
    05:00 -5°C° 0.1 mm 2 mps 484 mmHg 58%
    06:00 -4°C° 0 mm 2 mps 484 mmHg 56%
    07:00 -3°C° 0 mm 2 mps 485 mmHg 55%
    08:00 0°C° 0 mm 1 mps 486 mmHg 53%
    09:00 0°C° 0.1 mm 1 mps 486 mmHg 51%
    10:00 +1°C° 0.1 mm 1 mps 486 mmHg 49%
    11:00 +2°C° 0.1 mm 1 mps 487 mmHg 48%
    12:00 +1°C° 0.4 mm 2 mps 487 mmHg 49%
    13:00 +1°C° 0.4 mm 2 mps 487 mmHg 51%
    14:00 +1°C° 0.4 mm 2 mps 487 mmHg 52%
    15:00 +1°C° 0.2 mm 2 mps 486 mmHg 54%
    16:00 -1°C° 0.2 mm 2 mps 486 mmHg 56%
    17:00 -1°C° 0.2 mm 2 mps 486 mmHg 57%
    18:00 -2°C° 0 mm 2 mps 486 mmHg 59%
    19:00 -3°C° 0 mm 2 mps 485 mmHg 61%
    20:00 -5°C° 0 mm 2 mps 485 mmHg 62%
    21:00 -5°C° 0 mm 2 mps 485 mmHg 61%
    22:00 -5°C° 0 mm 2 mps 485 mmHg 60%
    23:00 -6°C° 0 mm 3 mps 485 mmHg 59%

    29 September, Saturday

    Time Temperature Precipitation Wind Pressure Humidity
    00:00 -6°C° 0 mm 3 mps 485 mmHg 59%
    01:00 -5°C° 0 mm 2 mps 485 mmHg 59%
    02:00 -5°C° 0 mm 2 mps 485 mmHg 59%
    03:00 -6°C° 0 mm 2 mps 485 mmHg 60%
    04:00 -6°C° 0 mm 2 mps 485 mmHg 60%
    05:00 -6°C° 0 mm 2 mps 485 mmHg 61%
    06:00 -5°C° 0 mm 2 mps 486 mmHg 58%
    07:00 -3°C° 0 mm 2 mps 487 mmHg 55%
    08:00 0°C° 0 mm 1 mps 488 mmHg 51%
    09:00 +1°C° 0 mm 1 mps 489 mmHg 47%
    10:00 +2°C° 0 mm 1 mps 489 mmHg 43%
    11:00 +3°C° 0 mm 1 mps 490 mmHg 38%
    12:00 +4°C° 0 mm 1 mps 490 mmHg 38%
    13:00 +3°C° 0 mm 2 mps 490 mmHg 38%
    14:00 +4°C° 0 mm 2 mps 490 mmHg 38%
    15:00 +3°C° 0 mm 2 mps 490 mmHg 42%
    16:00 +2°C° 0 mm 2 mps 489 mmHg 46%
    17:00 +1°C° 0 mm 2 mps 489 mmHg 50%
    18:00 -1°C° 0 mm 2 mps 488 mmHg 53%
    19:00 -2°C° 0 mm 2 mps 487 mmHg 57%
    20:00 -3°C° 0 mm 2 mps 487 mmHg 61%
    21:00 -4°C° 0 mm 3 mps 486 mmHg 63%
    22:00 -5°C° 0 mm 3 mps 486 mmHg 64%
    23:00 -5°C° 0 mm 3 mps 486 mmHg 66%

    30 September, Sunday

    Time Temperature Precipitation Wind Pressure Humidity
    00:00 -5°C° 0 mm 3 mps 486 mmHg 66%
    01:00 -5°C° 0 mm 3 mps 486 mmHg 65%
    02:00 -5°C° 0 mm 3 mps 485 mmHg 65%
    03:00 -5°C° 0 mm 3 mps 485 mmHg 62%
    04:00 -5°C° 0 mm 3 mps 485 mmHg 59%
    05:00 -5°C° 0 mm 3 mps 485 mmHg 57%
    06:00 -2°C° 0 mm 3 mps 486 mmHg 52%
    07:00 -1°C° 0 mm 3 mps 487 mmHg 48%
    08:00 0°C° 0 mm 3 mps 488 mmHg 43%
    09:00 +2°C° 0 mm 3 mps 488 mmHg 39%
    10:00 +4°C° 0 mm 2 mps 489 mmHg 35%
    11:00 +5°C° 0 mm 2 mps 489 mmHg 30%
    12:00 +5°C° 0 mm 2 mps 489 mmHg 30%
    13:00 +7°C° 0 mm 1 mps 489 mmHg 30%
    14:00 +7°C° 0 mm 1 mps 489 mmHg 29%
    15:00 +6°C° 0 mm 1 mps 488 mmHg 34%
    16:00 +5°C° 0 mm 1 mps 488 mmHg 39%
    17:00 +4°C° 0 mm 1 mps 487 mmHg 44%
    18:00 +3°C° 0 mm 1 mps 486 mmHg 45%
    19:00 +2°C° 0 mm 1 mps 486 mmHg 45%
    20:00 -2°C° 0 mm 2 mps 485 mmHg 46%
    21:00 -2°C° 0 mm 2 mps 485 mmHg 45%
    22:00 -2°C° 0 mm 2 mps 485 mmHg 44%
    23:00 -2°C° 0 mm 3 mps 484 mmHg 42%
    Show more